TOURFACTS.DK  
Stats and Facts from Tour de France.

Tour de France 2019 starts in 320 days
  Riders   Stages   Teams   Summits   Yearly  


 
Search by year

After 2018 - Stage 21:
 15000 starters.
  5165 different riders.
  638 teams.
  2253 stages.
  456 restdays.
  442940.60 km.
  5684 abandonnees.


Top 3
GC
Geraint Thomas83:17:13
Tom Dumoulin83:19:04
Christopher Froome83:19:37
Climb
Julian Alaphilippe170 pt.
Warren Barguil91 pt.
Rafal Majka76 pt.
Sprint
Peter Sagan477 pt.
Alexander Kristoff246 pt.
Arnaud Démare203 pt.
Youth
Pierre-Roger Latou..83:39:26
Egan Bernal83:45:05
Guillaume Martin84:01:31
Facts from Tour de France 2016
  |   Stages.  |   Stage winners.  |   Days in yellow  |   Average speed.  |   Route.  |   Teams.  |   All riders.  |   Rookies.  |  

  |   Withdrawls.  |   GC.  |   Polka  |   Green  |   White  |   Summits. (In tour)  |   Miscellaneous.  |  

Stage 11 on 13 - 07 - 2016
         Owning:    Christopher Froome      Thibaut Pinot      Peter Sagan      Adam Yates  

Pick a stage:  1 2 3 4 5 6 7 8 9 10 11 12 13 14 15 16 17 18 19 20 21
  CarcassonneMontpellier | Dist: 164.00 km.
Cat: 4Côte de MinerveFRAArthur Vichot1 points 
Cat: 4Côte de VillespassansFRAArthur Vichot1 points 

Average speed for all riders in stage:  47,086 km./hr.
    Place:Name:Team:Time:Km/h:
1
SVKPeter SaganRUSTinkoff03:26:23  +  00:00:00=47,678 
2
KENChristopher FroomeGBRSky Procycling03:26:23  +  00:00:00=47,678 
3
POLMaciej BodnarRUSTinkoff03:26:23  +  00:00:00=47,678 
44 NORAlexander KristoffRUSTeam Katusha03:26:29  +  00:00:06=47,655 
55 FRAChristophe LaporteFRACofidis – Solutions Crédits03:26:29  +  00:00:06=47,655 
66 BELJasper StuyvenUSATrek - Segafredo03:26:29  +  00:00:06=47,655 
77 NOREdvald Boasson HagenZAFDimension Data03:26:29  +  00:00:06=47,655 
88 GERAndré GreipelBELLotto Soudal03:26:29  +  00:00:06=47,655 
99 NORSondre Holst EngerCHEIAM Cycling03:26:29  +  00:00:06=47,655 
1010 BELOliver NaesenCHEIAM Cycling03:26:29  +  00:00:06=47,655 
1111 RSAReinardt Janse Van RensburgZAFDimension Data03:26:29  +  00:00:06=47,655 
1212 GERJohn DegenkolbDEUTeam Giant Alpecin03:26:29  +  00:00:06=47,655 
1313 NEDDylan GroenewegenNLDTeam Lotto NL - Jumbo03:26:29  +  00:00:06=47,655 
1414 ENGDaniel McLayFRAFortuneo - Vital Concept03:26:29  +  00:00:06=47,655 
1515 ENGAdam YatesAUSORICA BikeExchange03:26:29  +  00:00:06=47,655 
1616 CZERoman KreuzigerRUSTinkoff03:26:29  +  00:00:06=47,655 
1717 COLNairo QuintanaESPMovistar Team03:26:29  +  00:00:06=47,655 
1818 AUSSimon GerransAUSORICA BikeExchange03:26:29  +  00:00:06=47,655 
1919 NZLShane ArchboldDEUBora-Argon 1803:26:29  +  00:00:06=47,655 
2020 ITAOscar GattoRUSTinkoff03:26:29  +  00:00:06=47,655 
2121 BELGreg Van AvermaetUSABMC Racing Team03:26:29  +  00:00:06=47,655 
2222 ITAFabio AruKAZAstana Pro Team03:26:29  +  00:00:06=47,655 
2323 FRABryan CoquardFRADirect Energie03:26:29  +  00:00:06=47,655 
2424 USATejay Van GarderenUSABMC Racing Team03:26:29  +  00:00:06=47,655 
2525 GERMarcel KittelBELEtixx - Quick Step03:26:29  +  00:00:06=47,655 
2626 NEDBauke MollemaUSATrek - Segafredo03:26:29  +  00:00:06=47,655 
2727 AUSRichie PorteUSABMC Racing Team03:26:29  +  00:00:06=47,655 
2828 SUIMichael SchärUSABMC Racing Team03:26:29  +  00:00:06=47,655 
2929 FRARomain BardetFRAAg2r La Mondiale03:26:29  +  00:00:06=47,655 
3030 COLSergio Luis HenaoGBRSky Procycling03:26:29  +  00:00:06=47,655 
3131 WALGeraint ThomasGBRSky Procycling03:26:29  +  00:00:06=47,655 
3232 FRAWarren BarguilDEUTeam Giant Alpecin03:26:29  +  00:00:06=47,655 
3333 COLJarlinson Pantano GomezCHEIAM Cycling03:26:29  +  00:00:06=47,655 
3434 ITAVincenzo NibaliKAZAstana Pro Team03:26:29  +  00:00:06=47,655 
3535 ENGDaniel MartinBELEtixx - Quick Step03:26:29  +  00:00:06=47,655 
3636 ESPAlejandro ValverdeESPMovistar Team03:26:29  +  00:00:06=47,655 
3737 UKRAndriy GrivkoKAZAstana Pro Team03:26:29  +  00:00:06=47,655 
3838 GERPaul VossDEUBora-Argon 1803:26:29  +  00:00:06=47,655 
3939 DENMichael ValgrenRUSTinkoff03:26:29  +  00:00:06=47,655 
4040 FRAAngelo TulikFRADirect Energie03:26:37  +  00:00:14=47,624 
4141 BRAMaximilano RichezeBELEtixx - Quick Step03:26:39  +  00:00:16=47,617 
4242 ITAFabio SabatiniBELEtixx - Quick Step03:26:39  +  00:00:16=47,617 
4343 NEDWilco KeldermanNLDTeam Lotto NL - Jumbo03:26:43  +  00:00:20=47,601 
4444 BELJan BakelantsFRAAg2r La Mondiale03:26:43  +  00:00:20=47,601 
4545 POLBartosz HuzarskiDEUBora-Argon 1803:26:43  +  00:00:20=47,601 
4646 ESPGorka Izaguirre InsaustiESPMovistar Team03:26:43  +  00:00:20=47,601 
4747 HRVRobert KiserlovskiRUSTinkoff03:26:43  +  00:00:20=47,601 
4848 FRASylvain ChavanelFRADirect Energie03:26:43  +  00:00:20=47,601 
4949 CANAntoine DuchesneFRADirect Energie03:26:43  +  00:00:20=47,601 
5050 NEDRamon SinkeldamDEUTeam Giant Alpecin03:26:47  +  00:00:24=47,586 
5151 SUIGregory RastUSATrek - Segafredo03:26:50  +  00:00:27=47,575 
5252 FRAGeoffrey SoupeFRACofidis – Solutions Crédits03:26:53  +  00:00:30=47,563 
5353 BELJürgen RoelandtsBELLotto Soudal03:26:53  +  00:00:30=47,563 
5454 NEDTom DumoulinDEUTeam Giant Alpecin03:26:53  +  00:00:30=47,563 
5555 BELSep VanmarckeNLDTeam Lotto NL - Jumbo03:26:53  +  00:00:30=47,563 
5656 BELMaarten WynantsNLDTeam Lotto NL - Jumbo03:26:53  +  00:00:30=47,563 
5757 AUTGeorg PreidlerDEUTeam Giant Alpecin03:26:53  +  00:00:30=47,563 
5858 BELJulien VermoteBELEtixx - Quick Step03:26:53  +  00:00:30=47,563 
5959 NZLGregory HendersonBELLotto Soudal03:26:53  +  00:00:30=47,563 
6060 KAZAlexey LutsenkoKAZAstana Pro Team03:27:06  +  00:00:43=47,513 
6161 FRAYohann GèneFRADirect Energie03:27:06  +  00:00:43=47,513 
6262 BELIljo KeisseBELEtixx - Quick Step03:27:06  +  00:00:43=47,513 
6363 AUSLuke DurbridgeAUSORICA BikeExchange03:27:13  +  00:00:50=47,487 
6464 CZEPetr VakocBELEtixx - Quick Step03:27:23  +  00:01:00=47,448 
6565 RSALouis MeintjesITALampre-Merida03:27:32  +  00:01:09=47,414 
6666 ESPMarkel IrizarUSATrek - Segafredo03:27:32  +  00:01:09=47,414 
6767 GERMarcel SiebergBELLotto Soudal03:27:32  +  00:01:09=47,414 
6868 ESPJoaquim RodriguezRUSTeam Katusha03:27:32  +  00:01:09=47,414 
6969 SUISébastien ReichenbachFRAFDJ03:27:32  +  00:01:09=47,414 
7070 FRAPierre RollandUSATeam Cannondale Drapac03:27:32  +  00:01:09=47,414 
7171 NEDRoy CurversDEUTeam Giant Alpecin03:27:32  +  00:01:09=47,414 
7272 ESPImanol ErvitiESPMovistar Team03:27:32  +  00:01:09=47,414 
7373 FRAAlexis VuillermozFRAAg2r La Mondiale03:27:32  +  00:01:09=47,414 
7474 GEREmanuel BuchmannDEUBora-Argon 1803:27:32  +  00:01:09=47,414 
7575 ITADiego RosaKAZAstana Pro Team03:27:32  +  00:01:09=47,414 
7676 GERPaul MartensNLDTeam Lotto NL - Jumbo03:27:32  +  00:01:09=47,414 
7777 ESPJesus HerradaESPMovistar Team03:27:32  +  00:01:09=47,414 
7878 ESPLuis Angel MateFRACofidis – Solutions Crédits03:27:32  +  00:01:09=47,414 
7979 ESPHaimar ZubeldiaUSATrek - Segafredo03:27:32  +  00:01:09=47,414 
8080 FRAArmindo FonsecaFRAFortuneo - Vital Concept03:27:32  +  00:01:09=47,414 
8181 ARGEduardo SepulvedaFRAFortuneo - Vital Concept03:27:32  +  00:01:09=47,414 
8282 AUTPatrick KonradDEUBora-Argon 1803:27:32  +  00:01:09=47,414 
8383 ITADamiano CarusoUSABMC Racing Team03:27:32  +  00:01:09=47,414 
8484 ITAPaolo TiralongoKAZAstana Pro Team03:27:32  +  00:01:09=47,414 
8585 FRAMickaël CherelFRAAg2r La Mondiale03:27:32  +  00:01:09=47,414 
8686 AUSAdam HansenBELLotto Soudal03:27:32  +  00:01:09=47,414 
8787 NEDTimo RoosenNLDTeam Lotto NL - Jumbo03:27:32  +  00:01:09=47,414 
8888 SUIMartin ElmigerCHEIAM Cycling03:27:32  +  00:01:09=47,414 
8989 FRACyril GautierFRAAg2r La Mondiale03:27:32  +  00:01:09=47,414 
9090 ERIDaniel TeklehaimanotZAFDimension Data03:27:32  +  00:01:09=47,414 
9191 DENLars BakBELLotto Soudal03:27:32  +  00:01:09=47,414 
9292 GERMarcus BurghardtUSABMC Racing Team03:27:32  +  00:01:09=47,414 
9393 FRAAnthony RouxFRAFDJ03:27:32  +  00:01:09=47,414 
9494 GERRobert WagnerNLDTeam Lotto NL - Jumbo03:27:39  +  00:01:16=47,387 
9595 SLOLuka PibernikITALampre-Merida03:27:41  +  00:01:18=47,380 
9696 GERTony MartinBELEtixx - Quick Step03:27:46  +  00:01:23=47,361 
9797 ITAJacopo GuarnieriRUSTeam Katusha03:28:10  +  00:01:47=47,270 
9898 AUTMarco HallerRUSTeam Katusha03:28:30  +  00:02:07=47,194 
9999 URSRamunas NavardauskasUSATeam Cannondale Drapac03:28:30  +  00:02:07=47,194 
100100 NEDBert-Jan LindemanNLDTeam Lotto NL - Jumbo03:28:38  +  00:02:15=47,164 
101101 BELJens DebusschereBELLotto Soudal03:28:47  +  00:02:24=47,130 
102102 FRAJulian AlaphilippeBELEtixx - Quick Step03:28:53  +  00:02:30=47,108 
103103 NEDStef ClementCHEIAM Cycling03:29:21  +  00:02:58=47,003 
104104 SUISteve MorabitoFRAFDJ03:29:21  +  00:02:58=47,003 
105105 FRAJérémy RoyFRAFDJ03:29:24  +  00:03:01=46,991 
106106 ITAMatteo BonoITALampre-Merida03:29:24  +  00:03:01=46,991 
107107 FRABrice FeilluFRAFortuneo - Vital Concept03:29:24  +  00:03:01=46,991 
108108 URSTanel KangertKAZAstana Pro Team03:29:24  +  00:03:01=46,991 
109109 SUIFabian CancellaraUSATrek - Segafredo03:30:00  +  00:03:37=46,857 
110110 LUXFränk SchleckUSATrek - Segafredo03:30:05  +  00:03:42=46,839 
111111 SLOJan PolancITALampre-Merida03:30:05  +  00:03:42=46,839 
112112 ITAMatteo TosattoRUSTinkoff03:30:05  +  00:03:42=46,839 
113113 SUIMathias FrankCHEIAM Cycling03:30:13  +  00:03:50=46,809 
114114 FRAAdrien PetitFRADirect Energie03:30:13  +  00:03:50=46,809 
115115 FRACyril LemoineFRACofidis – Solutions Crédits03:30:13  +  00:03:50=46,809 
116116 FRAPierre-Luc PérichonFRAFortuneo - Vital Concept03:30:13  +  00:03:50=46,809 
117117 HRVKristijan DurasekITALampre-Merida03:30:13  +  00:03:50=46,809 
118118 BLRVasil KiryienkaGBRSky Procycling03:30:13  +  00:03:50=46,809 
119119 RUSIlnur ZakarinRUSTeam Katusha03:30:13  +  00:03:50=46,809 
120120 NEDTom-Jelte SlagterUSATeam Cannondale Drapac03:30:13  +  00:03:50=46,809 
121121 USAPeter StetinaUSATrek - Segafredo03:30:13  +  00:03:50=46,809 
122122 PORNelson OliveiraESPMovistar Team03:30:13  +  00:03:50=46,809 
123123 USABrent BookwalterUSABMC Racing Team03:30:13  +  00:03:50=46,809 
124124 FRAAmaël MoinardUSABMC Racing Team03:30:13  +  00:03:50=46,809 
125125 FRAFlorian VachonFRAFortuneo - Vital Concept03:30:13  +  00:03:50=46,809 
126126 FRAThibaut PinotFRAFDJ03:30:13  +  00:03:50=46,809 
127127 ITADomenico PozzovivoFRAAg2r La Mondiale03:30:13  +  00:03:50=46,809 
128128 FRAAnthony DelaplaceFRAFortuneo - Vital Concept03:30:13  +  00:03:50=46,809 
129129 ESPMikel Landa MeanaGBRSky Procycling03:30:13  +  00:03:50=46,809 
130130 ESPLuis León SánchezKAZAstana Pro Team03:30:13  +  00:03:50=46,809 
131131 GERSimon GeschkeDEUTeam Giant Alpecin03:30:13  +  00:03:50=46,809 
132132 SUIJakob FuglsangKAZAstana Pro Team03:30:13  +  00:03:50=46,809 
133133 DENMatti BreschelUSATeam Cannondale Drapac03:30:13  +  00:03:50=46,809 
134134 ERINatnael Teweldemedhin BerhaneZAFDimension Data03:30:13  +  00:03:50=46,809 
135135 SUIMichael AlbasiniAUSORICA BikeExchange03:30:13  +  00:03:50=46,809 
136136 CZEJan BártaDEUBora-Argon 1803:30:13  +  00:03:50=46,809 
137137 BELJurgen Van Den BroeckRUSTeam Katusha03:30:13  +  00:03:50=46,809 
138138 ESPMikel NieveGBRSky Procycling03:30:13  +  00:03:50=46,809 
139139 AUTBernhard EiselZAFDimension Data03:30:13  +  00:03:50=46,809 
140140 IOMMark CavendishZAFDimension Data03:30:13  +  00:03:50=46,809 
141141 ESPJon Izaguirre InsaustiESPMovistar Team03:30:13  +  00:03:50=46,809 
142142 SLOKristjan KorenUSATeam Cannondale Drapac03:30:13  +  00:03:50=46,809 
143143 ITACesare BenedettiDEUBora-Argon 1803:30:13  +  00:03:50=46,809 
144144 NEDDylan Van BaarleUSATeam Cannondale Drapac03:30:13  +  00:03:50=46,809 
145145 FRARomain SicardFRADirect Energie03:30:13  +  00:03:50=46,809 
146146 BELSerge PauwelsZAFDimension Data03:30:13  +  00:03:50=46,809 
147147 AUSMathew HaymanAUSORICA BikeExchange03:30:13  +  00:03:50=46,809 
148148 IRLChristopher Juul JensenAUSORICA BikeExchange03:30:13  +  00:03:50=46,809 
149149 AUSLeigh HowardCHEIAM Cycling03:32:02  +  00:05:39=46,408 
150150 SUIReto HollensteinCHEIAM Cycling03:32:02  +  00:05:39=46,408 
151151 ETHTsgabu Gebremaryan GrmayITALampre-Merida03:32:02  +  00:05:39=46,408 
152152 ESPDaniel MorenoESPMovistar Team03:32:02  +  00:05:39=46,408 
153153 COLWinner AnaconaESPMovistar Team03:32:02  +  00:05:39=46,408 
154154 BELThomas De GendtBELLotto Soudal03:32:02  +  00:05:39=46,408 
155155 FRAThomas VoecklerFRADirect Energie03:32:02  +  00:05:39=46,408 
156156 ESPDaniel NavarroFRACofidis – Solutions Crédits03:32:02  +  00:05:39=46,408 
157157 ESPAlberto LosadaRUSTeam Katusha03:32:02  +  00:05:39=46,408 
158158 ITADavide CimolaiITALampre-Merida03:32:02  +  00:05:39=46,408 
159159 ESPÁngel ViciosoRUSTeam Katusha03:32:02  +  00:05:39=46,408 
160160 ESPRubén PlazaAUSORICA BikeExchange03:32:02  +  00:05:39=46,408 
161161 POLRafal MajkaRUSTinkoff03:32:02  +  00:05:39=46,408 
162162 FRAArnold JeannessonFRACofidis – Solutions Crédits03:32:02  +  00:05:39=46,408 
163163 FRANicolas EdetFRACofidis – Solutions Crédits03:32:02  +  00:05:39=46,408 
164164 PORRui CostaITALampre-Merida03:32:02  +  00:05:39=46,408 
165165 WALLuke RoweGBRSky Procycling03:32:02  +  00:05:39=46,408 
166166 RSADaryl ImpeyAUSORICA BikeExchange03:32:02  +  00:05:39=46,408 
167167 LUXBen GastauerFRAAg2r La Mondiale03:32:02  +  00:05:39=46,408 
168168 AUSMichael MatthewsAUSORICA BikeExchange03:32:02  +  00:05:39=46,408 
169169 DENChris Anker SørensenFRAFortuneo - Vital Concept03:32:02  +  00:05:39=46,408 
170170 AUSRohan DennisUSABMC Racing Team03:32:02  +  00:05:39=46,408 
171171 FRAJérôme CoppelCHEIAM Cycling03:32:02  +  00:05:39=46,408 
172172 NZLGeorge BennettNLDTeam Lotto NL - Jumbo03:32:02  +  00:05:39=46,408 
173173 NEDLaurens ten DamDEUTeam Giant Alpecin03:32:02  +  00:05:39=46,408 
174174 NEDWout PoelsGBRSky Procycling03:32:02  +  00:05:39=46,408 
175175 USAAlex HowesUSATeam Cannondale Drapac03:32:02  +  00:05:39=46,408 
176176 ENGStephen CummingsZAFDimension Data03:32:02  +  00:05:39=46,408 
177177 ENGIan StannardGBRSky Procycling03:32:02  +  00:05:39=46,408 
178178 FRATony GallopinBELLotto Soudal03:32:02  +  00:05:39=46,408 
179179 JPNYukiya ArashiroITALampre-Merida03:32:02  +  00:05:39=46,408 
180180 FRAWilliam BonnetFRAFDJ03:32:02  +  00:05:39=46,408 
181181 FRAArthur VichotFRAFDJ03:32:02  +  00:05:39=46,408 
182182 NORVegard BreenFRAFortuneo - Vital Concept03:32:02  +  00:05:39=46,408 
183183 FRAJérôme CousinFRACofidis – Solutions Crédits03:32:02  +  00:05:39=46,408 
184184 FRAFabrice JeandesbozFRADirect Energie03:32:02  +  00:05:39=46,408 
185185 SLOBorut BozicFRACofidis – Solutions Crédits03:32:02  +  00:05:39=46,408 
186186 BELEdward TheunsUSATrek - Segafredo03:32:11  +  00:05:48=46,375 
187187 GERAndreas SchillingerDEUBora-Argon 1803:32:22  +  00:05:59=46,335 
188188 BELSam BennettDEUBora-Argon 1803:32:22  +  00:05:59=46,335 
189189 FRA Alexis GougeardFRAAg2r La Mondiale03:32:22  +  00:05:59=46,335 
190190 FRASamuel DumoulinFRAAg2r La Mondiale03:32:22  +  00:05:59=46,335 
191191 NEDAlbert TimmerDEUTeam Giant Alpecin03:32:22  +  00:05:59=46,335 
192192 USALawson CraddockUSATeam Cannondale Drapac03:43:24  +  00:17:01=44,047 

Todays birthdays.

1878  Jean Novo
1883  Jules Chabas
1890  Ange Aubry
1893  Roger Marye
1913  Paul Maye
1914  Lucien Vlaemynck
1915  Alphonse Antoine
1932  Rolf Graf
1953  Julio Rubiano
1959  Jos Haex
1959  Gerard Veldscholten
1963  Pablo Moreno
1964  Juan Castillo
1977  Iban Mayo
1994  Fernando Gaviria